Location: Banios
(43.0451°N, 0.2335°E)
Time: 11:21:25
(UTC+00:00)

Envisat - Pass Details

Date: 13 December 2021
Orbit: 764 x 766 km, 98.2° (Epoch: 28 January)

Event Time Altitude Azimuth Distance (km) Brightness Sun altitude
Rises 04:57:06 0° 14° (NNE) 3,242 6.3 -25.6°
Reaches altitude 10° 04:59:26 10° 15° (NNE) 2,312 5.5 -25.1°
Maximum altitude 05:04:32 80° 103° (ESE) 781 3.0 -24.2°
Drops below altitude 10° 05:09:36 10° 191° (S) 2,294 5.5 -23.3°
Sets 05:11:53 0° 192° (SSW) 3,215 6.2 -22.9°
